Regional Weather Roundup
Issued by NWS

Home | Current Version | Previous Version | Text Only | Print | Product List | Glossary On
Versions: 1 2 3 4 5 6 7 8 9 10 11 12 13 14 15 16 17 18 19 20 21 22 23 24 25 26 27 28 29 30 31 32 33 34 35 36 37 38 39 40 41 42 43 44 45 46 47 48 49 50
000
ASUS43 KIND 010609
RWRIN

WEATHER ROUNDUP FOR INDIANA
NATIONAL WEATHER SERVICE INDIANAPOLIS IN
200 AM EDT WED JUN 01 2016

NOTE: "FAIR" INDICATES FEW OR NO CLOUDS BELOW 12,000 FEET WITH NO
SIGNIFICANT WEATHER AND/OR OBSTRUCTIONS TO VISIBILITY.

* - STATION DOES NOT REPORT WEATHER SUCH AS PRECIPITATION OR FOG.

+ - STATION NOT QUALITY CONTROLLED BY THE NATIONAL WEATHER SERVICE.
    USE DATA WITH CAUTION...ESPECIALLY DEWPOINT AND RELATIVE
    HUMIDITY OBSERVATIONS.

INZ001>003-010>013-019-020-010700-
NORTHWEST INDIANA

CITY           SKY/WX    TMP DP  RH WIND       PRES   REMARKS
GARY /AIRPORT/ CLOUDY    67  67 100 CALM      29.97S
KNOX *+        CLOUDY    64  57  77 E3        29.97S
LA PORTE +     PTCLDY    65  65 100 E3        29.98F
6HR MIN TEMP:  65; 6HR MAX TEMP:  69;

MICHIGAN CITY+ PTCLDY    64  63  94 CALM      29.97F
MONTICELLO +   PTCLDY    68  58  70 E8        29.96S
6HR MIN TEMP:  67; 6HR MAX TEMP:  73;

RENSSELAER +   CLOUDY    66  63  88 NE5       29.96F

$$

LMZ046-743>745-010700-
SOUTHERN LAKE MICHIGAN

STATION/POSITION TIME  TEMP    WIND        PRES    WAVE
                       AIR SEA DIR/SP/G            HT
                 (UTC) (F)     (DEG/KT/KT) (MB)    (FT)
BURNS HARBOR     0501   62      CALM  /  4 1015.2F
MICHIGAN CITY    0500   65     140/  2/  2   N/A
5NW MICH CITY    0600   63 62  130/  2/  2   N/A     1

$$

INZ004-005-014>016-021>024-010700-
NORTH CENTRAL INDIANA

CITY           SKY/WX    TMP DP  RH WIND       PRES   REMARKS
GOSHEN         CLOUDY    71  48  43 E10       29.99F
6HR MIN TEMP:  67; 6HR MAX TEMP:  75;

LOGANSPORT +   CLEAR     64  55  72 E7        29.97F
PERU/GRISSOM   PTCLDY    69  55  61 E7        29.96F
6HR MIN TEMP:  68; 6HR MAX TEMP:  73; 6HR PCP: TRACE;

ROCHESTER +    PTCLDY    70  52  52 E8        29.98S
SOUTH BEND     CLOUDY    67  58  72 E8        29.98F
6HR MIN TEMP:  63; 6HR MAX TEMP:  67; 6HR PCP: TRACE;

WARSAW +       CLOUDY    70  50  49 E9        29.99F

$$

INZ006>009-017-018-025>027-010700-
NORTHEAST INDIANA

CITY           SKY/WX    TMP DP  RH WIND       PRES   REMARKS
ANGOLA *+        N/A     66  57  72 SE6       30.02F
AUBURN +       MOCLDY    63  48  59 E5        30.03S
FORT WAYNE     PTCLDY    63  50  62 NE9       30.00F
6HR MIN TEMP:  63; 6HR MAX TEMP:  81;

HUNTINGTON +   CLEAR    N/A N/A N/A E3        29.99F

$$

INZ028-029-035-036-043>045-051>053-010700-
WEST CENTRAL INDIANA

CITY           SKY/WX    TMP DP  RH WIND       PRES   REMARKS
CRAWFORDSVL +  CLEAR     64  58  80 CALM      29.96F
6HR MIN TEMP:  64; 6HR MAX TEMP:  81;

GREENCASTLE +  CLOUDY    68  63  83 CALM      29.96F
LAFAYETTE      CLOUDY    67  59  75 E6        29.95S
6HR MIN TEMP:  67; 6HR MAX TEMP:  76;

TERRE HAUTE    CLOUDY    69  61  75 CALM      29.94F
6HR MIN TEMP:  69; 6HR MAX TEMP:  83;


$$

INZ030>032-037>040-046>048-054>057-064-065-010700-
CENTRAL INDIANA

CITY           SKY/WX    TMP DP  RH WIND       PRES   REMARKS
CP ATTERBURY + CLEAR     61  59  94 CALM      29.97S
FRANKFORT +      N/A     68  51  53 SE5       29.98S
6HR MIN TEMP:  67; 6HR MAX TEMP:  76;

GREENWOOD *+   CLEAR     68  59  73 CALM      29.97F
INDIANAPOLIS   PTCLDY    71  58  63 NE5       29.95F
6HR MIN TEMP:  71; 6HR MAX TEMP:  81;

-EAGLE CREEK   CLEAR     68  59  73 CALM      29.96F
6HR MIN TEMP:  68; 6HR MAX TEMP:  84;

KOKOMO *+      CLEAR     64  55  72 E6        29.97F
6HR MIN TEMP:  64; 6HR MAX TEMP:  75; 6HR PCP:  0.01;

MARION +       PTCLDY    70  51  50 E7        29.98F
SHELBYVILLE    CLEAR     67  63  87 E3        29.96F
6HR MIN TEMP:  67; 6HR MAX TEMP:  84;

ZIONSVILLE +   CLEAR     63  60  91 CALM      29.98S
6HR MIN TEMP:  63; 6HR MAX TEMP:  76;


$$

INZ033-034-041-042-049-050-058-059-010700-
EAST CENTRAL INDIANA

CITY           SKY/WX    TMP DP  RH WIND       PRES   REMARKS
MUNCIE         CLEAR     68  55  63 E6        29.98F
6HR MIN TEMP:  68; 6HR MAX TEMP:  80; 6HR PCP:  0.02;


$$

INZ060-061-067>069-081>083-085>088-010700-
SOUTHWEST INDIANA

CITY           SKY/WX    TMP DP  RH WIND       PRES   REMARKS
EVANSVILLE     CLOUDY    72  65  78 CALM      29.93F
6HR MIN TEMP:  71; 6HR MAX TEMP:  83;

HUNTINGBURG *+ CLOUDY    70  63  78 CALM      29.94F
6HR MIN TEMP:  70; 6HR MAX TEMP:  79;

WASHINGTON +   CLOUDY    70  69  96 CALM      29.93F
6HR MIN TEMP:  68; 6HR MAX TEMP:  83;


$$

INZ062-063-066-070>080-084-089>092-010700-
SOUTH CENTRAL AND SOUTHEAST INDIANA

CITY           SKY/WX    TMP DP  RH WIND       PRES   REMARKS
BEDFORD +      CLEAR     66  66 100 CALM      29.95F
BLOOMINGTON    CLOUDY    67  61  81 CALM      29.96S
6HR MIN TEMP:  66; 6HR MAX TEMP:  83;

MADISON *+     CLOUDY    64  61  88 CALM      29.98F
NORTH VERNON + CLOUDY   N/A N/A N/A CALM      29.97F
SEYMOUR +      CLEAR     66  64  94 CALM      29.96F

$$





USA.gov is the U.S. government's official web portal to all federal, state and local government web resources and services.